Omak, WA

4:00 PM PDT on April 22, 2018 (GMT -0700)
Omak

Weather History for KOMK - July, 2013

Change the Weather History Date:

Saturday, July 27, 2013

  Actual Average Record
Temperature  
Mean Temperature 75 °F 75 °F  
Max Temperature 89 °F 91 °F 109 °F (1939)
Min Temperature 60 °F 59 °F 45 °F (1969)
Degree Days  
Heating Degree Days 0 0  
Month to date heating degree days 0 11  
Since 1 June heating degree days 67 80  
Since 1 July heating degree days 0 11  
Cooling Degree Days 10 10  
Month to date cooling degree days 297 213  
Year to date cooling degree days 385 320  
Since 1 June cooling degree days 362 297  
Growing Degree Days 24 (Base 50)    
Moisture  
Dew Point 38 °F    
Average Humidity 27    
Maximum Humidity 39    
Minimum Humidity 15    
Precipitation  
Precipitation 0.00 in 0.02 in 0.39 in (1948)
Month to date precipitation 0.26 0.72  
Year to date precipitation 6.10 8.70  
Sea Level Pressure  
Sea Level Pressure 29.90 in    
Wind  
Wind Speed 8 mph (NNW)    
Max Wind Speed 18 mph    
Max Gust Speed 24 mph    
Visibility 10 miles    
Events      
T = Trace of Precipitation, MM = Missing Value Source: NWS Daily Summary

Daily Weather History Graph

Daily Weather History Graph

Search for Another Location

Airport or City:

Astronomy

Jul. 27, 2013 Rise Set
Actual Time 5:26 AM PDT 8:41 PM PDT
Civil Twilight 4:48 AM PDT 9:19 PM PDT
Nautical Twilight 3:59 AM PDT 10:08 PM PDT
Astronomical Twilight 2:55 AM PDT 11:11 PM PDT
Moon 10:55 PM PDT (7/27) 11:46 AM PDT (7/27)
Length of Visible Light 16h 30m
Length of Day
15h 14m
Waning Gibbous, 70% of the Moon is Illuminated
Jul 27
Waning Gibbous
Jul 29
Last Quarter
Aug 6
New
Aug 14
First Quarter
Aug 20
Full

Hourly Weather History & Observations

Time (PDT) Temp. Dew Point Humidity Pressure Visibility Wind Dir Wind Speed Gust Speed Precip Events Conditions
12:53 AM 72.0 °F 35.1 °F 26% 29.90 in 10.0 mi WNW 6.9 mph - N/A   Clear
1:53 AM 70.0 °F 39.9 °F 33% 29.90 in 10.0 mi North 9.2 mph - N/A   Clear
2:53 AM 64.0 °F 37.9 °F 38% 29.91 in 10.0 mi WNW 4.6 mph - N/A   Clear
3:53 AM 64.0 °F 35.1 °F 34% 29.92 in 10.0 mi NW 6.9 mph - N/A   Clear
4:53 AM 60.1 °F 35.1 °F 39% 29.95 in 10.0 mi WNW 9.2 mph - N/A   Clear
5:53 AM 62.1 °F 33.1 °F 34% 29.96 in 10.0 mi WNW 10.4 mph - N/A   Clear
6:53 AM 70.0 °F 35.1 °F 28% 29.97 in 10.0 mi North 9.2 mph - N/A   Clear
7:53 AM 73.9 °F 36.0 °F 25% 29.98 in 10.0 mi North 10.4 mph - N/A   Clear
8:53 AM 78.1 °F 37.0 °F 23% 29.98 in 10.0 mi NNE 11.5 mph - N/A   Clear
9:53 AM 81.0 °F 39.9 °F 23% 29.98 in 10.0 mi North 17.3 mph 24.2 mph N/A   Clear
10:53 AM 82.0 °F 39.9 °F 22% 29.97 in 10.0 mi NNE 13.8 mph - N/A   Clear
11:53 AM 84.0 °F 39.9 °F 21% 29.96 in 10.0 mi NE 5.8 mph 16.1 mph N/A   Clear
12:53 PM 84.9 °F 39.0 °F 20% 29.94 in 10.0 mi North 9.2 mph - N/A   Clear
1:53 PM 84.9 °F 39.0 °F 20% 29.92 in 10.0 mi Variable 4.6 mph - N/A   Clear
2:53 PM 86.0 °F 39.0 °F 19% 29.90 in 10.0 mi Variable 4.6 mph - N/A   Clear
3:53 PM 87.1 °F 37.9 °F 18% 29.87 in 10.0 mi WNW 5.8 mph - N/A   Clear
4:53 PM 88.0 °F 37.0 °F 16% 29.85 in 10.0 mi South 5.8 mph - N/A   Clear
5:53 PM 88.0 °F 37.0 °F 16% 29.82 in 10.0 mi Variable 3.5 mph - N/A   Clear
6:53 PM 89.1 °F 36.0 °F 15% 29.80 in 10.0 mi Calm Calm - N/A   Clear
7:53 PM 82.9 °F 39.9 °F 22% 29.79 in 10.0 mi North 4.6 mph - N/A   Clear
8:53 PM 75.9 °F 39.0 °F 26% 29.80 in 10.0 mi North 8.1 mph - N/A   Clear
9:53 PM 72.0 °F 41.0 °F 33% 29.81 in 10.0 mi WNW 10.4 mph - N/A   Clear
10:53 PM 70.0 °F 42.1 °F 36% 29.81 in 10.0 mi WNW 10.4 mph - N/A   Clear
11:53 PM 69.1 °F 41.0 °F 36% 29.82 in 10.0 mi WNW 10.4 mph - N/A   Clear